Other Public Products
Issued by NWS Charleston, SC

Current Version | Previous Version | Text Only | Print | Product List | Glossary Off
Versions: 1 2 3 4 5 6 7 8 9 10 11 12 13 14 15 16 17 18 19 20 21 22 23 24 25 26 27 28 29 30 31 32 33 34 35 36 37 38 39 40 41 42 43 44 45 46 47 48 49 50

887
FPUS82 KCHS 112127
OPUCHS

TEST...KCHS/KSAV Gateway Observations...TEST
National Weather Service Charleston SC
400 PM EST MON DEC 11 2017

NOTE: "fair" indicates few or no clouds below 12,000 feet with no
significant weather and/or obstructions to visibility.

SCZ050-WAZ558-NCZ071-TXZ119-213-PAZ071-DCZ001-FLZ074-172-MI076-
NYZ176-178-MAZ016-IL014-TNZ027-NJZ106-GAZ044-MD014-112200-

...Gateway Observations for Charleston International...

CITY           SKY/WX    TMP DP  RH WIND       PRES   REMARKS
Chas Airport   SUNNY     57  32  38 W6        30.06F
Seattle        MOSUNNY   45  34  65 SE6       30.34F
Charlotte      SUNNY     54  30  40 S10       30.00F
Dallas DFW     MOSUNNY   79  13   8 W13       30.09F
Dallas Love    MOSUNNY   76  16  10 W13       30.10F
Philladelphia  MOCLDY    42  21  43 VRB7      30.01S
Wash National  PTCLDY    47  28  47 S7        30.00S
Baltimore      PTCLDY    45  24  43 SW5       29.99R
Miami          MOSUNNY   68  28  22 NW7       30.15F
Detroit        CLOUDY    30  25  81 S9        29.83F WCI  22
Newark         MOCLDY    40  22  48 W8        29.99F WCI  34
Laguardia      CLOUDY    41  21  44 W9        29.99S
J F K          MOCLDY    40  22  48 NW8       30.00F WCI  34
Boston Logan   PTCLDY    37  20  50 NW7       29.99R WCI  32
Ft. Lauderdale MOSUNNY   67  29  24 N6        30.14F
Chicago O`Hare CLOUDY    38  25  59 NE6       29.66F WCI  33
Chicago Midway CLOUDY    39  26  59 SE5       29.67S WCI  36
Houston Bush   MOSUNNY   75  27  17 VRB6      30.18F
Houston Hobby  MOSUNNY   73  28  18 SW7       30.18F
Nashville      MOSUNNY   60  30  32 S15       29.91F
Atlanta        MOSUNNY   60  32  34 W9        30.04F

$$

GAZ044-118-TXZ119-213-NCZ071-DCZ001-MDZ014-506-PAZ021-071-NJZ106-
NYZ176-178-MAZ106-OHZ011-021-055-MIZ076-KYZ091-ILZ014-INZ047-
MNZ060-ONZ431-112200-

...Gateway Observations for Savannah International...

CITY           SKY/WX    TMP DP  RH WIND       PRES   REMARKS
Savannah Arpt  MOSUNNY   60  33  36 SW7       30.09S
Atlanta        MOSUNNY   60  32  34 W9        30.04F
Charlotte      SUNNY     54  30  40 S10       30.00F
Dallas DFW     MOSUNNY   79  13   8 W13       30.09F
Houston Bush   MOSUNNY   75  27  17 VRB6      30.18F
Wash National  PTCLDY    47  28  47 S7        30.00S
Wash Dulles    MOCLDY    46  26  45 S8        29.98R
Baltimore      PTCLDY    45  24  43 SW5       29.99R
Philadelphia   MOCLDY    42  21  43 VRB7      30.01S
Newark         MOCLDY    40  22  48 W8        29.99F WCI  34
Laguardia      CLOUDY    41  21  44 W9        29.99S
J F K          MOCLDY    40  22  48 NW8       30.00F WCI  34
Boston         PTCLDY    37  20  50 NW7       29.99R WCI  32
Pittsburg      CLOUDY    39  22  50 CALM      29.87F
Akron          LGT SNOW  32  21  64 S9        29.85F WCI  24
Cleveland      CLOUDY    31  23  72 SE8       29.88F WCI  23
Cincinnati     CLOUDY    45  30  55 S12       29.77F
Columbus       CLOUDY    38  26  64 CALM      29.84F
Detroit        CLOUDY    30  25  81 S9        29.83F WCI  22
Chicago O`Hare CLOUDY    38  25  59 NE6       29.66F WCI  33
Minneapolis    CLOUDY    33  27  78 N18G28    29.95R WCI  22
Indianapolis   CLOUDY    45  28  51 S9        29.70F
Toronto Canada LGT SNOW  25  19  80 E9        29.90F VSB 1   WCI  15

$$




USA.gov is the U.S. government's official web portal to all federal, state and local government web resources and services.